FLOCK 2EP-4

Last updated on Sun May 29 2016 17:36:37 GMT+0000 (Coordinated Universal Time)

1 41482U 98067JC 16150.31931316 .00009143 00000-0 13793-3 0 9992 2 41482 51.6418 152.0851 0001514 334.1988 133.7732 15.55550360 1849
UTC large
Height (km)
Speed (km/s)
/
Latitude / Longitude
Inclination (degrees)
Orbital Period (minutes)
Azimuth
Elevation
Range (km)
Doppler Factor

Next 0 passes for location: London (51.5072 / 0.1276)

Sorry there are no passes over London.